timestamp,surface_pressure_avg,surface_temp_avg,battery_voltage,lat,long
2023-07-13 00:09:00+00:00,217.4448,15.5,12.97,47.84626,-54.09684
2023-07-13 00:19:00+00:00,216.6613,15.5,12.81,47.84626,-54.09684
2023-07-13 00:29:00+00:00,216.2164,15.54,12.81,47.84626,-54.09684
2023-07-13 00:39:00+00:00,211.7198,15.58,12.81,47.84626,-54.09684
2023-07-13 00:49:00+00:00,208.6013,15.6,12.81,47.84626,-54.09684
2023-07-13 00:59:00+00:00,210.0914,15.64,12.81,47.84626,-54.09684
2023-07-13 01:09:00+00:00,211.3648,15.7,12.81,47.84626,-54.09684
2023-07-13 01:19:00+00:00,209.6798,15.73,12.73,47.84626,-54.09684
2023-07-13 01:29:00+00:00,206.7664,15.79,12.73,47.84626,-54.09684
2023-07-13 01:39:00+00:00,207.1064,15.8,12.73,47.84626,-54.09684
2023-07-13 01:49:00+00:00,208.6648,15.8,12.73,47.84626,-54.09684
2023-07-13 01:59:00+00:00,206.6181,15.82,12.73,47.84626,-54.09684
2023-07-13 02:09:00+00:00,206.0414,15.87,12.73,47.84626,-54.09684
2023-07-13 02:19:00+00:00,209.1431,15.9,12.73,47.84626,-54.09684
2023-07-13 02:29:00+00:00,209.3331,15.9,12.73,47.84626,-54.09684
2023-07-13 02:39:00+00:00,209.2914,15.9,12.73,47.84626,-54.09684
2023-07-13 02:49:00+00:00,212.0614,15.94,12.73,47.84626,-54.09684
2023-07-13 02:59:00+00:00,213.7231,15.98,12.73,47.84626,-54.09684
2023-07-13 03:09:00+00:00,213.678,15.99,12.73,47.84626,-54.09684
2023-07-13 03:19:00+00:00,215.4365,16.0,12.65,47.84626,-54.09684
2023-07-13 03:29:00+00:00,218.4681,16.0,12.65,47.84626,-54.09684
2023-07-13 03:39:00+00:00,218.0848,16.0,12.65,47.84626,-54.09684
2023-07-13 03:49:00+00:00,217.4532,16.0,12.65,47.84626,-54.09684
2023-07-13 03:59:00+00:00,219.4964,16.03,12.65,47.84626,-54.09684
2023-07-13 04:09:00+00:00,222.6114,16.08,12.65,47.84626,-54.09684
2023-07-13 04:19:00+00:00,222.7714,16.1,12.65,47.84626,-54.09684
2023-07-13 04:29:00+00:00,225.4114,16.12,12.65,47.84626,-54.09684
2023-07-13 04:39:00+00:00,231.0047,16.16,12.65,47.84626,-54.09684
2023-07-13 04:49:00+00:00,235.4048,16.15,12.65,47.84626,-54.09684
2023-07-13 04:59:00+00:00,238.4665,16.1,12.65,47.84626,-54.09684
2023-07-13 05:09:00+00:00,243.5131,16.1,12.65,47.84626,-54.09684
2023-07-13 05:19:00+00:00,249.7114,16.1,12.65,47.84626,-54.09684
2023-07-13 05:29:00+00:00,254.2481,16.1,12.65,47.84626,-54.09684
2023-07-13 05:39:00+00:00,258.4731,16.1,12.65,47.84626,-54.09684
2023-07-13 05:49:00+00:00,263.2514,16.12,12.65,47.84626,-54.09684
2023-07-13 05:59:00+00:00,266.9464,16.1,12.65,47.84626,-54.09684
2023-07-13 06:09:00+00:00,272.3464,16.1,12.65,47.84626,-54.09684
2023-07-13 06:19:00+00:00,278.5281,16.1,12.65,47.84626,-54.09684
2023-07-13 06:29:00+00:00,282.3797,16.09,12.65,47.84626,-54.09684
2023-07-13 06:39:00+00:00,284.0696,16.05,12.65,47.84626,-54.09684
2023-07-13 06:49:00+00:00,287.9214,16.06,12.65,47.84626,-54.09684
2023-07-13 06:59:00+00:00,292.613,16.0,12.65,47.84626,-54.09684
2023-07-13 07:09:00+00:00,294.3197,16.0,12.65,47.84626,-54.09684
2023-07-13 07:19:00+00:00,295.7064,16.06,12.57,47.84626,-54.09684
2023-07-13 07:29:00+00:00,299.7864,16.0,12.57,47.84626,-54.09684
2023-07-13 07:39:00+00:00,303.4913,15.99,12.57,47.84626,-54.09684
2023-07-13 07:49:00+00:00,302.6197,16.0,12.57,47.84626,-54.09684
2023-07-13 07:59:00+00:00,301.1113,16.0,12.57,47.84626,-54.09684
2023-07-13 08:09:00+00:00,303.008,16.0,12.57,47.84626,-54.09684
2023-07-13 08:19:00+00:00,305.1563,15.99,12.57,47.84626,-54.09684
2023-07-13 08:29:00+00:00,304.1713,16.0,12.57,47.84626,-54.09684
2023-07-13 08:39:00+00:00,304.5829,16.1,12.57,47.84626,-54.09684
2023-07-13 08:49:00+00:00,305.793,16.1,12.57,47.84626,-54.09684
2023-07-13 08:59:00+00:00,306.0697,16.11,12.57,47.84626,-54.09684
2023-07-13 09:09:00+00:00,304.2247,16.17,12.57,47.84626,-54.09684
2023-07-13 09:19:00+00:00,302.8931,16.23,12.65,47.84626,-54.09684
2023-07-13 09:29:00+00:00,299.123,16.29,12.65,47.84626,-54.09684
2023-07-13 09:39:00+00:00,295.9197,16.29,12.65,47.84626,-54.09684
2023-07-13 09:49:00+00:00,293.4847,16.3,12.65,47.84626,-54.09684
2023-07-13 09:59:00+00:00,289.313,16.31,12.65,47.84626,-54.09684
2023-07-13 10:09:00+00:00,283.3597,16.34,12.65,47.84626,-54.09684
2023-07-13 10:19:00+00:00,278.5313,16.3,12.89,47.84626,-54.09684
2023-07-13 10:29:00+00:00,273.9214,16.3,12.89,47.84626,-54.09684
2023-07-13 10:39:00+00:00,267.5531,16.35,12.89,47.84626,-54.09684
2023-07-13 10:49:00+00:00,262.2115,16.46,12.89,47.84626,-54.09684
2023-07-13 10:59:00+00:00,260.1381,16.58,12.89,47.84626,-54.09684
2023-07-13 11:09:00+00:00,254.8781,16.61,12.89,47.84626,-54.09684
2023-07-13 11:19:00+00:00,246.5564,16.7,13.44,47.84626,-54.09684
2023-07-13 11:29:00+00:00,241.5798,16.8,13.44,47.84626,-54.09684
2023-07-13 11:39:00+00:00,239.1497,16.8,13.44,47.84626,-54.09684
2023-07-13 11:49:00+00:00,231.7214,16.8,13.44,47.84626,-54.09684
2023-07-13 11:59:00+00:00,223.0915,16.8,13.44,47.84626,-54.09684
2023-07-13 12:09:00+00:00,218.8031,16.82,13.44,47.84626,-54.09684
2023-07-13 12:19:00+00:00,213.6514,16.8,13.53,47.84626,-54.09684
2023-07-13 12:29:00+00:00,207.3081,16.8,13.53,47.84626,-54.09684
2023-07-13 12:39:00+00:00,205.4549,16.8,13.53,47.84626,-54.09684
2023-07-13 12:49:00+00:00,206.9265,16.8,13.53,47.84626,-54.09684
2023-07-13 12:59:00+00:00,204.9665,16.84,13.53,47.84626,-54.09684
2023-07-13 13:09:00+00:00,203.0165,16.9,13.53,47.84626,-54.09684
2023-07-13 13:19:00+00:00,205.9114,16.9,13.68,47.84626,-54.09684
2023-07-13 13:29:00+00:00,209.9249,16.92,13.68,47.84626,-54.09684
2023-07-13 13:39:00+00:00,209.5031,16.9,13.68,47.84626,-54.09684
2023-07-13 13:49:00+00:00,208.7797,16.86,13.68,47.84626,-54.09684
2023-07-13 13:59:00+00:00,210.4348,16.86,13.68,47.84626,-54.09684
2023-07-13 14:09:00+00:00,212.6564,16.8,13.68,47.84626,-54.09684
2023-07-13 14:19:00+00:00,213.2864,16.5,14.0,47.84626,-54.09684
2023-07-13 14:29:00+00:00,213.1914,16.3,14.0,47.84626,-54.09684
2023-07-13 14:39:00+00:00,214.6098,16.3,14.0,47.84626,-54.09684
2023-07-13 14:49:00+00:00,217.2081,16.35,14.0,47.84626,-54.09684
2023-07-13 14:59:00+00:00,219.5897,16.39,14.0,47.84626,-54.09684
2023-07-13 15:09:00+00:00,219.4632,16.32,14.0,47.84626,-54.09684
2023-07-13 15:19:01+00:00,218.683,16.49,13.92,47.84626,-54.09684
2023-07-13 15:29:01+00:00,219.8998,16.4,13.92,47.84626,-54.09684
2023-07-13 15:39:01+00:00,222.3048,16.16,13.92,47.84626,-54.09684
2023-07-13 15:49:01+00:00,224.4732,16.0,13.92,47.84626,-54.09684
2023-07-13 15:59:01+00:00,225.3415,16.0,13.92,47.84626,-54.09684
2023-07-13 16:09:01+00:00,228.6848,15.99,13.92,47.84626,-54.09684
2023-07-13 16:19:00+00:00,232.5814,15.99,13.68,47.84626,-54.09684
2023-07-13 16:29:00+00:00,235.0214,16.0,13.68,47.84626,-54.09684
2023-07-13 16:39:00+00:00,236.2881,16.0,13.68,47.84626,-54.09684
2023-07-13 16:49:00+00:00,240.3831,16.0,13.68,47.84626,-54.09684
2023-07-13 16:59:00+00:00,246.8964,16.0,13.68,47.84626,-54.09684
2023-07-13 17:09:00+00:00,250.958,16.03,13.68,47.84626,-54.09684
2023-07-13 17:19:00+00:00,252.9498,16.1,13.68,47.84626,-54.09684
2023-07-13 17:29:00+00:00,257.6897,16.19,13.68,47.84626,-54.09684
2023-07-13 17:39:00+00:00,263.6931,16.21,13.68,47.84626,-54.09684
2023-07-13 17:49:00+00:00,268.2198,16.26,13.68,47.84626,-54.09684
2023-07-13 17:59:00+00:00,273.0147,16.19,13.68,47.84626,-54.09684
2023-07-13 18:09:00+00:00,278.828,16.0,13.68,47.84626,-54.09684
2023-07-13 18:19:00+00:00,284.553,16.0,13.53,47.84626,-54.09684
2023-07-13 18:29:00+00:00,290.8614,15.99,13.53,47.84626,-54.09684
2023-07-13 18:39:00+00:00,297.9347,16.0,13.53,47.84626,-54.09684
2023-07-13 18:49:00+00:00,303.0746,16.0,13.53,47.84626,-54.09684
2023-07-13 18:59:00+00:00,307.9764,16.08,13.53,47.84626,-54.09684
2023-07-13 19:09:00+00:00,313.5146,16.09,13.53,47.84626,-54.09684
2023-07-13 19:19:01+00:00,316.8864,16.1,13.53,47.84626,-54.09684
2023-07-13 19:29:01+00:00,317.3013,16.11,13.53,47.84626,-54.09684
2023-07-13 19:39:01+00:00,322.7764,16.1,13.53,47.84626,-54.09684
2023-07-13 19:49:01+00:00,329.6796,16.1,13.53,47.84626,-54.09684
2023-07-13 19:59:01+00:00,329.4763,16.1,13.53,47.84626,-54.09684
2023-07-13 20:09:01+00:00,327.1813,16.1,13.53,47.84626,-54.09684
2023-07-13 20:19:00+00:00,331.3813,16.0,13.37,47.84626,-54.09684
2023-07-13 20:29:00+00:00,336.3813,15.9,13.37,47.84626,-54.09684
2023-07-13 20:39:00+00:00,335.3663,15.96,13.37,47.84626,-54.09684
2023-07-13 20:49:00+00:00,335.2912,15.99,13.37,47.84626,-54.09684
2023-07-13 20:59:00+00:00,337.608,16.0,13.37,47.84626,-54.09684
2023-07-13 21:09:00+00:00,337.8746,16.0,13.37,47.84626,-54.09684
2023-07-13 21:19:00+00:00,334.9413,16.06,13.29,47.84626,-54.09684
2023-07-13 21:29:00+00:00,333.1046,16.09,13.29,47.84626,-54.09684
2023-07-13 21:39:00+00:00,334.0730000000001,16.1,13.29,47.84626,-54.09684
2023-07-13 21:49:00+00:00,331.4664,16.14,13.29,47.84626,-54.09684
2023-07-13 21:59:00+00:00,330.0446,16.2,13.29,47.84626,-54.09684
2023-07-13 22:09:00+00:00,328.6629,16.29,13.29,47.84626,-54.09684
2023-07-13 22:19:00+00:00,323.5446,16.3,13.13,47.84626,-54.09684
2023-07-13 22:29:00+00:00,317.938,16.3,13.13,47.84626,-54.09684
2023-07-13 22:39:00+00:00,314.5147,16.3,13.13,47.84626,-54.09684
2023-07-13 22:49:00+00:00,308.4431,16.3,13.13,47.84626,-54.09684
2023-07-13 22:59:00+00:00,300.6946,16.3,13.13,47.84626,-54.09684
2023-07-13 23:09:00+00:00,294.5247,16.3,13.13,47.84626,-54.09684
2023-07-13 23:19:00+00:00,289.0764,16.28,12.89,47.84626,-54.09684
2023-07-13 23:29:00+00:00,279.6664,16.27,12.89,47.84626,-54.09684
2023-07-13 23:39:00+00:00,272.2431,16.25,12.89,47.84626,-54.09684
2023-07-13 23:49:00+00:00,268.4797,16.23,12.89,47.84626,-54.09684
2023-07-13 23:59:00+00:00,262.2581,16.2,12.89,47.84626,-54.09684
